Location: Hohe Wand Kleine Kanzel
(47.8330°N, 16.0170°E)
Time: 15:09:18
(UTC+02:00)

AO-85 - Visible Passes

Search period start: 24 September 2021 00:00
Search period end: 04 October 2021 00:00
Orbit: 521 x 762 km, 64.8° (Epoch: 12 March)

Date Brightness Start Highest point End Pass type
(mag) Time Alt. Az. Time Alt. Az. Time Alt. Az.
24 Sep ? 19:19:03 10° NNW 19:23:04 21° NNE 19:27:04 10° ENE visible
24 Sep ? 20:59:05 10° NW 21:04:25 72° NE 21:05:16 59° ESE visible
24 Sep ? 22:40:25 10° WNW 22:42:51 19° W 22:42:51 19° W visible
25 Sep ? 19:43:14 10° NNW 19:47:59 32° NE 19:51:32 15° E visible
25 Sep ? 21:23:32 10° NW 21:28:46 61° WSW 21:29:08 59° SW visible
26 Sep ? 20:07:27 10° NNW 20:12:41 53° NE 20:15:28 26° ESE visible
26 Sep ? 21:48:19 10° NW 21:52:53 30° WSW 21:53:04 30° WSW visible
27 Sep ? 20:31:48 10° NW 20:37:09 84° SW 20:39:29 34° SSE visible
27 Sep ? 22:13:57 10° WNW 22:16:46 15° WSW 22:17:05 15° WSW visible
28 Sep ? 19:15:51 10° NNW 19:20:53 41° NE 19:25:47 10° ESE visible
28 Sep ? 20:56:23 10° NW 21:01:22 42° WSW 21:03:35 28° S visible
29 Sep ? 19:40:08 10° NW 19:45:28 72° NE 19:50:12 12° SE visible
29 Sep ? 21:21:29 10° WNW 21:25:22 21° WSW 21:27:48 15° SW visible
30 Sep ? 20:04:35 10° NW 20:09:48 60° WSW 20:14:33 12° SSE visible
01 Oct ? 20:29:22 10° NW 20:33:54 30° WSW 20:38:19 10° S visible
02 Oct ? 19:12:51 10° NW 19:18:11 83° SW 19:23:19 10° SSE visible
02 Oct ? 20:55:01 10° WNW 20:57:47 14° WSW 21:00:29 10° SW visible
03 Oct ? 19:37:26 10° NW 19:42:25 42° WSW 19:47:11 10° S visible
